Orbital Elements at Epoch 2459200.5 (2020-Dec-17.0) TDB
Reference: JPL 21 (heliocentric ecliptic J2000)
Element | Value | Uncertainty (1-sigma) | Units |
e | .1145328444917189 | 3.5129e-08 | |
a | 2.334546244036358 | 1.1634e-08 | au |
q | 2.067164022109415 | 8.1688e-08 | au |
i | 7.189843001808542 | 4.023e-06 | deg |
node | 75.10678918766433 | 3.7594e-05 | deg |
peri | 6.104488463227104 | 4.3554e-05 | deg |
M | 38.13474139512137 | 2.1274e-05 | deg |
tp | 2459062.486854732131 (2020-Jul-31.98685473) | 7.6893e-05 | TDB |
period | 1302.873193281678 3.57 | 9.7393e-06 2.666e-08 | d yr |
n | .2763123854695572 | 2.0655e-09 | deg/d |
Q | 2.6019284659633 | 1.2967e-08 | au |
|
| | Orbit Determination Parameters
Additional Information
|